sat.trackr.live / text

‹ back to catalog

STARLINK-31693

NORAD 59441 · 2024-065W

PAYLOAD ACTIVE UNKNOWN

§ Identity

Operator
Country
US
Launch date
2024-04-07
Launch site
AFWTR
Launch vehicle
Mass (kg)
RCS (m²)

Purposes: comms

External: N2YO · Heavens-Above · Gunter

§ Orbital elements

Epoch: 2026-09-21T21:56:20.256576Z

Period
93.85 min
Inclination
53.1584°
Eccentricity
0.0001179
Mean motion
15.34392823 rev/d
Perigee alt
461.9 km
Apogee alt
463.5 km
Semi-major
6,840.9 km
B*
6.9307e-5
RAAN
87.2932°
Arg perigee
84.2084°
Mean anomaly
275.9053°
Rev number
13,901

§ Raw data

STARLINK-316931 59441U 24065W   26264.91412334  .00001966  00000+0  69307-4 0  99972 59441  53.1584  87.2932 0001179  84.2084 275.9053 15.34392823139011

JSON: /api/v1/satellites/59441 · /tle

For live sub-satellite position, see the globe view (requires WebGL).

§ Visibility from observer

Set your observer location to see the next 7 days of passes ≥ 10°. The values pass through the URL so the page stays shareable.

No JS? Fill the form by hand. The geolocation button needs JavaScript.